[[{"header":{"parameterUnit":"m.s-1","parameterCategory":1,"la1":30.2991,"la2":30.254,"lo1":-89.0895,"lo2":-89.0444,"dy":0.0017,"dx":0.0017,"nx":28,"ny":28,"refTime":"2024-08-11T03:00:00:Z","depth":0,"parameterNumber":2,"parameterNumberName":"U-component_of_WINDS"},"data":[0,0,0,0,0,0,0,0,0,0,0,0,0,0,0,0,0,0,0,0,0,0,0,0,0,0,0,0,0,0,0,0,0,0,0,0,0,0,0,0,0,0,0,0,0,0,0,0,0,0,0,0,0,0,0,0,0,0,4.3596,4.3597,0,4.3655,4.3655,4.3656,4.357,4.3567,4.3564,4.3561,4.3622,4.3626,4.3631,0,0,0,0,0,0,0,0,0,0,0,0,0,4.3409,4.3413,4.3596,4.3597,4.3598,4.3655,4.3655,4.3656,4.3571,4.3567,4.3563,4.356,4.362,4.3626,4.3631,0,0,0,0,0,0,0,0,0,0,0,0,0,4.3481,4.3414,4.3596,4.3562,4.3559,4.3654,4.3655,4.3656,4.3572,4.3567,4.3562,4.3558,4.3619,4.3625,4.3632,4.3763,0,0,4.3652,4.3655,0,0,0,0,0,0,0,0,4.3477,4.3488,4.3566,4.3564,4.3562,4.36,4.3611,4.3692,4.3573,4.3567,4.3561,4.3556,4.3618,4.3625,4.3646,4.3766,4.3768,4.3653,4.3657,4.3659,4.3661,0,0,0,0,0,0,0,4.3473,4.3485,4.3619,4.3567,4.3565,4.3543,4.3548,4.3626,4.3617,4.3567,4.3561,4.3569,4.3616,4.364,4.3647,4.3769,4.3652,4.3658,4.3662,4.3665,4.3996,4.4,0,0,0,0,0,0,4.3472,4.3482,4.3617,4.3621,4.3508,4.355,4.3556,4.3593,4.3616,4.3616,4.3573,4.3565,4.363,4.3639,4.3648,4.38,4.3659,4.3666,4.3669,4.3991,4.3997,4.4002,0,0,0,0,0,0,4.3468,4.3485,4.3615,4.355,4.3565,4.3558,4.36,4.3596,4.3619,4.3621,4.3619,4.3598,4.3627,4.3639,4.3734,4.3801,4.3669,4.3675,4.3985,4.3993,4.3999,4.4107,0,0,0,0,0,0,4.3463,4.3484,4.3534,4.3552,4.3569,4.3701,4.3604,4.3601,4.3631,4.3621,4.3644,4.3643,4.3625,4.3725,4.3741,4.3808,4.368,4.3979,4.3988,4.3997,4.4097,4.4117,4.4133,0,0,0,0,0,4.3457,4.3563,4.3537,4.3554,4.3631,4.3705,4.3714,4.369,4.3637,4.3686,4.3687,4.3643,4.3792,4.3735,4.3752,4.3822,4.3975,4.3986,4.3996,4.4089,4.4113,4.4133,0,0,0,0,0,0,4.3555,4.3565,4.3536,4.3652,4.3678,4.369,4.3752,4.3717,4.3759,4.3748,4.3717,4.3723,4.3824,4.3833,4.377,4.3949,4.3874,4.3889,4.3938,4.3961,4.3979,4.3973,4.3685,0,0,0,0,0,4.359,4.3649,4.3655,4.3756,4.377,4.3759,4.3791,4.377,4.3795,4.3806,4.3814,4.3841,4.3893,4.3928,4.3977,4.4099,4.41,4.4155,4.4174,4.4188,4.4201,4.4262,4.4285,4.4037,4.4037,4.4037,0,0,4.3663,4.3676,4.3715,4.3776,4.3793,4.3854,4.3769,4.3838,4.3882,4.3817,4.3905,4.3912,4.394,4.4048,4.4096,4.4059,4.427,4.4202,4.4214,4.4218,4.4275,4.4298,4.4319,4.4045,4.4043,4.4042,0,0,4.3826,4.3843,4.3927,4.3946,4.3974,4.3965,4.3986,4.4003,4.4004,4.4093,4.4044,4.4096,4.4189,4.4209,4.4231,4.44,4.4359,4.4417,4.4511,4.457,4.459,4.4607,4.4663,4.4684,4.443,4.443,4.443,0,4.3913,4.4002,4.3975,4.4045,4.4072,4.4016,4.4099,4.4119,4.4162,4.4181,4.4139,4.4251,4.4266,4.4376,4.4416,4.4438,4.4458,4.4413,4.4589,4.4606,4.4622,4.4675,4.4696,4.4436,4.4436,4.4435,4.4434,0,4.4105,4.4168,4.4233,4.4273,4.4308,4.4385,4.4368,4.4406,4.4382,4.4378,4.4468,4.4484,4.4532,4.4558,4.4536,4.4664,4.4639,4.4595,4.4518,4.4652,4.4701,4.4722,4.4446,4.4443,4.4441,4.444,0,0,4.4331,4.4354,4.4378,4.4394,4.4419,4.4467,4.4541,4.4588,4.4619,4.4651,4.4709,4.4788,4.4745,4.477,4.475,4.4804,4.4931,4.4751,4.4751,4.478,4.5068,4.5099,4.5123,4.4905,4.4909,4.4912,4.5064,0,4.449,4.4616,4.4593,4.4715,4.4771,4.4717,4.4781,4.4803,4.4801,4.4847,4.4845,4.4899,4.4841,4.4855,4.4906,4.4905,4.4987,4.4894,4.4957,4.496,4.4948,4.515,4.5184,4.5326,4.5084,4.5087,4.509,0,4.4692,4.4728,4.4856,4.4869,4.4892,4.495,4.4989,4.5035,4.5058,4.5052,4.508,4.5049,4.5121,4.5046,4.5142,4.5079,4.5104,4.5108,4.5112,4.5115,4.503,4.5154,4.5372,4.5392,4.512,4.5118,4.5116,0,4.4838,4.492,4.5005,4.5021,4.5041,4.5082,4.5091,4.511,4.5139,4.5174,4.5191,4.5235,4.5258,4.5292,4.5273,4.5221,4.5372,4.5296,4.5367,4.5367,4.5398,4.5396,4.562,4.5421,4.5421,4.542,4.542,0,4.5015,4.5095,4.5071,4.5123,4.5209,4.5182,4.5268,4.5272,4.5289,4.5339,4.5298,4.5346,4.532,4.5367,4.5353,4.5432,4.5445,4.544,4.5435,4.5442,4.5442,4.5455,4.5443,4.5426,4.5425,4.5424,4.5423,0,4.5192,4.518,4.5269,4.5279,4.5283,4.5346,4.5354,4.5402,4.5397,4.5462,4.5476,4.5467,4.5519,4.5504,4.5562,4.5552,4.5652,4.5636,4.5644,4.5638,4.5708,4.57,4.5945,4.5974,4.5761,4.5763,4.5765,0,4.5304,4.5364,4.538,4.541,4.5423,4.5474,4.5502,4.5478,4.5509,4.5538,4.5582,4.563,4.5667,4.5753,4.5752,4.5794,4.5777,4.586,4.5783,4.5787,4.5773,4.5768,4.5772,4.5874,4.5876,4.5878,4.588,0,4.5504,4.5494,4.5536,4.5576,4.5611,4.5642,4.5668,4.5696,4.5673,4.571,4.5762,4.5791,4.5848,4.5895,4.5934,4.5943,4.5907,4.5905,4.5922,4.5928,4.5928,4.5925,4.5681,4.5898,4.5896,4.5895,4.5894,4.5893,4.5649,4.5697,4.5715,4.5763,4.578,4.5805,4.585,4.5849,4.5892,4.5936,4.5919,4.5978,4.5997,4.6045,4.6059,4.6104,4.6073,4.61,4.6106,4.6112,4.6119,4.5924,4.6112,4.6112,4.6111,4.6111,4.611,0,4.5842,4.585,4.5895,4.5932,4.5969,4.5933,4.5959,4.5992,4.6045,4.6066,4.6102,4.6161,4.6206,4.6208,4.625,4.6285,4.627,4.6297,4.6292,4.6294,4.6147,4.6125,4.6309,4.6309,4.6309,4.6309,4.6309,4.6309,4.5946,4.6025,4.6018,4.6104,4.6112,4.6169,4.6186,4.6209,4.6225,4.6292,4.6329,4.6329,4.6342,4.6384,4.6423,4.6422,4.6438,4.6471,4.6463,4.6325,4.6305,4.6286,4.6265,4.6475,4.6476,4.6606,4.6607,4.6608]},{"header":{"parameterUnit":"m.s-1","parameterCategory":1,"la1":30.2991,"la2":30.254,"lo1":-89.0895,"lo2":-89.0444,"dy":0.0017,"dx":0.0017,"nx":28,"ny":28,"refTime":"2024-08-11T03:00:00:Z","depth":0,"parameterNumber":3,"parameterNumberName":"V-component_of_WINDS"},"data":[0,0,0,0,0,0,0,0,0,0,0,0,0,0,0,0,0,0,0,0,0,0,0,0,0,0,0,0,0,0,0,0,0,0,0,0,0,0,0,0,0,0,0,0,0,0,0,0,0,0,0,0,0,0,0,0,0,0,4.5373,4.5374,0,4.5496,4.5497,4.5498,4.5489,4.5487,4.5485,4.5483,4.5603,4.5608,4.5613,0,0,0,0,0,0,0,0,0,0,0,0,0,4.5125,4.5129,4.5373,4.5374,4.5376,4.5495,4.5497,4.5499,4.5489,4.5487,4.5485,4.5483,4.5602,4.5608,4.5613,0,0,0,0,0,0,0,0,0,0,0,0,0,4.5238,4.5131,4.5373,4.5386,4.5388,4.5495,4.5497,4.5499,4.549,4.5487,4.5484,4.5482,4.56,4.5607,4.5614,4.5714,0,0,4.5637,4.564,0,0,0,0,0,0,0,0,4.5232,4.5247,4.5382,4.5385,4.5388,4.5474,4.5453,4.5571,4.549,4.5451,4.5483,4.548,4.5562,4.5572,4.5601,4.572,4.5725,4.5637,4.5642,4.5645,4.5647,0,0,0,0,0,0,0,4.5224,4.5242,4.5421,4.5384,4.5388,4.5384,4.5397,4.5476,4.552,4.5454,4.5454,4.5469,4.5563,4.5594,4.5604,4.5727,4.5637,4.5644,4.5648,4.5651,4.5931,4.5934,0,0,0,0,0,0,4.5214,4.5236,4.5417,4.5425,4.5302,4.539,4.5405,4.5449,4.5519,4.5528,4.5471,4.5468,4.5583,4.5595,4.5608,4.5728,4.5645,4.5652,4.5656,4.5928,4.5932,4.5935,0,0,0,0,0,0,4.5209,4.523,4.5412,4.533,4.5353,4.5397,4.5447,4.5453,4.5484,4.5532,4.5539,4.5495,4.5581,4.5598,4.5688,4.5733,4.5655,4.5662,4.5925,4.5929,4.5934,4.5971,0,0,0,0,0,0,4.5202,4.5228,4.5268,4.5331,4.5358,4.5492,4.545,4.5457,4.5497,4.5495,4.5557,4.5564,4.5581,4.5677,4.5695,4.5741,4.5667,4.5921,4.5927,4.5932,4.5966,4.5976,4.5985,0,0,0,0,0,4.5193,4.5273,4.5271,4.5292,4.5409,4.5495,4.5509,4.5528,4.5501,4.5541,4.5571,4.5562,4.5725,4.5686,4.5707,4.5756,4.5918,4.5925,4.5932,4.5961,4.5974,4.5985,0,0,0,0,0,0,4.5213,4.5282,4.5279,4.5383,4.5433,4.5493,4.5543,4.5541,4.5599,4.5593,4.5613,4.5627,4.5717,4.5745,4.5701,4.5855,4.5818,4.5829,4.5833,4.5846,4.5855,4.5845,4.5674,0,0,0,0,0,4.523,4.5295,4.5351,4.5437,4.5463,4.5499,4.5537,4.5547,4.5599,4.562,4.5657,4.5706,4.5768,4.5809,4.5869,4.597,4.5982,4.6014,4.6023,4.6031,4.604,4.6093,4.6107,4.5958,4.5958,4.5958,0,0,4.5264,4.531,4.535,4.5442,4.5482,4.5548,4.5517,4.5588,4.5636,4.563,4.5717,4.5746,4.5802,4.5898,4.5942,4.5924,4.6084,4.6039,4.6045,4.605,4.6102,4.6116,4.6128,4.5962,4.5962,4.5961,0,0,4.5361,4.5403,4.5478,4.5519,4.5581,4.5604,4.5622,4.5683,4.5702,4.5791,4.5787,4.5844,4.5951,4.599,4.6024,4.6135,4.6128,4.6154,4.6203,4.6255,4.6267,4.6278,4.6315,4.6329,4.6163,4.6163,4.6163,0,4.5395,4.5496,4.5517,4.5589,4.5628,4.5628,4.5703,4.5741,4.5818,4.5845,4.5825,4.5958,4.5996,4.61,4.6127,4.6155,4.6175,4.6146,4.6264,4.6275,4.6285,4.6321,4.6335,4.6166,4.6166,4.6165,4.6165,0,4.5535,4.5604,4.5658,4.5734,4.5779,4.5852,4.5882,4.5926,4.5932,4.5957,4.6045,4.6091,4.6159,4.6185,4.6191,4.6289,4.6276,4.626,4.6223,4.6301,4.6335,4.6349,4.617,4.6169,4.6168,4.6167,0,0,4.5646,4.5733,4.5752,4.5786,4.5854,4.5907,4.5979,4.6048,4.6084,4.6137,4.6196,4.6287,4.6272,4.631,4.6321,4.6367,4.6449,4.6345,4.6346,4.6361,4.6558,4.6568,4.6584,4.6446,4.6448,4.6451,4.6552,0,4.5748,4.5878,4.5898,4.6011,4.6075,4.6075,4.6137,4.6184,4.6209,4.6265,4.6292,4.6355,4.6332,4.6355,4.64,4.643,4.6489,4.6423,4.6498,4.6501,4.6483,4.6602,4.6614,4.6708,4.6566,4.6568,4.657,0,4.5884,4.5942,4.6062,4.612,4.6147,4.6203,4.6267,4.6321,4.6374,4.6388,4.6432,4.6437,4.6509,4.647,4.6568,4.6523,4.6555,4.6574,4.6578,4.6584,4.6539,4.661,4.6739,4.6752,4.6592,4.659,4.6588,0,4.5951,4.6059,4.6145,4.6174,4.6244,4.6283,4.6314,4.6364,4.6404,4.6459,4.6484,4.6546,4.658,4.6627,4.6647,4.6617,4.6744,4.6707,4.6756,4.6755,4.6781,4.6779,4.6915,4.6805,4.6805,4.6805,4.6804,0,4.6062,4.6134,4.6176,4.6228,4.6308,4.6331,4.6409,4.6438,4.6483,4.6539,4.6543,4.6595,4.662,4.6676,4.6692,4.677,4.6785,4.6798,4.6801,4.6796,4.6795,4.6816,4.681,4.6808,4.6808,4.6807,4.6806,0,4.6149,4.618,4.6273,4.6332,4.6349,4.6405,4.6455,4.6505,4.6529,4.66,4.6618,4.6656,4.6722,4.6748,4.6827,4.6838,4.6927,4.6926,4.691,4.691,4.6958,4.6952,4.7111,4.7132,4.701,4.7011,4.7012,0,4.6217,4.6273,4.6339,4.6378,4.641,4.6472,4.6513,4.6536,4.6578,4.6642,4.6683,4.6749,4.6802,4.6906,4.694,4.7,4.6999,4.7051,4.7008,4.7001,4.6998,4.6993,4.6998,4.7058,4.7059,4.706,4.7061,0,4.6333,4.6345,4.6405,4.6469,4.6518,4.6569,4.6619,4.665,4.6681,4.6727,4.6795,4.6837,4.6919,4.6983,4.7045,4.7074,4.7072,4.7074,4.7089,4.7084,4.7071,4.7077,4.6929,4.707,4.7069,4.7069,4.7068,4.7068,4.6411,4.6461,4.6514,4.658,4.662,4.6667,4.6716,4.6747,4.6805,4.6874,4.6884,4.6956,4.7006,4.7089,4.7121,4.7176,4.7162,4.7184,4.7189,4.7193,4.7195,4.7064,4.7188,4.7188,4.7187,4.7187,4.7187,0,4.6526,4.656,4.6621,4.6691,4.6742,4.6738,4.6793,4.6835,4.6899,4.6946,4.6999,4.7076,4.7138,4.7177,4.7239,4.7276,4.7276,4.7291,4.7287,4.7294,4.7205,4.7186,4.7289,4.7289,4.7289,4.7289,4.7289,4.7289,4.6591,4.6674,4.6692,4.6794,4.6828,4.69,4.6931,4.6973,4.7011,4.7098,4.715,4.7175,4.7219,4.7284,4.734,4.735,4.7371,4.7387,4.7395,4.7311,4.73,4.729,4.7272,4.7392,4.7392,4.7479,4.748,4.748]}]]